FW7064 Weather Reports


time (UTC)temp
C
wind
direction
speed
KPH
gust
KPH
rain 1hr
cm
rain 24hr
cm
rain mn
cm
humidity
%
barometer
mb
20260505035502 13 292 0.0 0.0 0.00 0.00 0.00 84 1011.1
20260505034505 13 292 0.0 0.0 0.00 0.00 0.00 85 1011.1
20260505033603 12 292 0.0 0.0 0.00 0.00 0.00 86 1010.9
20260505032603 12 313 0.0 0.0 0.00 0.00 0.00 83 1010.8
20260505031604 13 293 0.0 0.0 0.00 0.00 0.00 83 1010.8
20260505030604 13 294 0.0 0.0 0.00 0.00 0.00 81 1010.7
20260505024605 13 292 0.0 0.0 0.00 0.00 0.00 82 1010.6
20260505022704 14 314 0.0 0.0 0.00 0.00 0.00 79 1010.5
20260505021704 14 314 0.0 0.0 0.00 0.00 0.00 80 1010.7
20260505020705 14 293 0.0 0.0 0.00 0.00 0.00 81 1010.7
20260505015802 13 292 0.0 0.0 0.00 0.00 0.00 81 1010.8
20260505014804 13 299 0.0 0.0 0.00 0.00 0.00 79 1010.8
20260505013805 14 300 0.0 0.0 0.00 0.00 0.00 80 1010.9
20260505012904 14 293 0.0 0.0 0.00 0.00 0.00 79 1010.8
20260505010904 15 297 0.0 0.0 0.00 0.00 0.00 78 1011.2
20260505005903 15 302 0.0 0.0 0.00 0.00 0.00 77 1011.2
20260505004904 15 296 0.0 0.0 0.00 0.00 0.00 78 1011.3
20260505003004 14 296 0.0 0.0 0.00 0.00 0.00 84 1011.3
20260505002005 13 292 0.0 0.0 0.00 0.00 0.00 85 1011.5
20260505001902 13 292 0.0 0.0 0.00 0.00 0.00 85 1011.4
20260505000904 13 315 0.0 0.0 0.00 0.00 0.00 83 1011.3
20260504235905 14 315 0.0 0.0 0.00 0.00 0.00 83 1011.3
20260504234906 13 314 0.0 0.0 0.00 0.00 0.00 84 1011.3
20260504234002 13 315 0.0 0.0 0.00 0.00 0.00 82 1011.3
20260504233904 13 315 0.0 0.0 0.00 0.00 0.00 82 1011.3
20260504232905 14 292 0.0 0.0 0.00 0.00 0.00 82 1011.5
20260504230905 14 294 0.0 0.0 0.00 0.00 0.00 82 1011.4
20260504225904 14 314 0.0 0.0 0.00 0.00 0.00 81 1011.6
20260504225003 14 317 0.0 0.0 0.00 0.00 0.00 82 1011.6
20260504224004 14 316 0.0 0.0 0.00 0.00 0.00 82 1011.8
20260504223006 14 316 0.0 0.0 0.00 0.00 0.00 81 1011.8
20260504222012 15 314 0.0 0.0 0.00 0.00 0.00 81 1011.9
20260504221011 15 317 0.0 0.0 0.00 0.00 0.00 82 1011.6
20260504215111 14 315 0.0 0.0 0.00 0.00 0.00 82 1012.0
20260504214112 14 315 0.0 0.0 0.00 0.00 0.00 83 1012.0
20260504212111 14 315 0.0 0.0 0.00 0.00 0.00 79 1012.3
20260504211112 15 316 0.0 0.0 0.00 0.00 0.00 80 1012.2
20260504210110 14 318 0.0 0.0 0.00 0.00 0.00 79 1012.4
20260504210013 14 315 0.0 0.0 0.00 0.00 0.00 79 1012.3
20260504205111 15 315 0.0 0.0 0.00 0.00 0.00 78 1012.3
20260504204110 15 315 0.0 0.0 0.00 0.00 0.00 78 1012.2
20260504203112 15 314 0.0 0.0 0.00 0.00 0.00 76 1012.2
20260504202111 16 315 0.0 0.0 0.00 0.00 0.00 75 1012.2
20260504201210 15 315 0.0 0.0 0.00 0.00 0.00 74 1012.1
20260504200212 15 313 0.0 0.0 0.00 0.00 0.00 74 1012.2
20260504194212 16 315 0.0 0.0 0.00 0.00 0.00 72 1012.1
20260504193211 15 315 0.0 0.0 0.00 0.00 0.00 74 1012.2
20260504192310 15 315 0.0 0.0 0.00 0.00 0.00 77 1012.3
20260504191314 15 315 0.0 0.0 0.00 0.00 0.00 76 1012.2
20260504185511 16 337 0.0 0.0 0.00 0.00 0.00 72 1012.2
20260504184512 16 15 0.0 0.0 0.00 0.00 0.00 73 1012.1
20260504183512 16 22 0.0 0.0 0.00 0.00 0.00 73 1012.2
20260504182512 16 337 0.0 0.0 0.00 0.00 0.00 75 1012.4
20260504180611 15 315 0.0 0.0 0.00 0.00 0.00 77 1012.6
20260504175612 15 315 0.0 0.0 0.00 0.00 0.00 77 1012.4
20260504174614 16 360 0.0 0.0 0.00 0.00 0.00 76 1012.5
20260504173612 15 360 0.0 0.0 0.00 0.00 0.00 78 1012.5
20260504171711 14 337 0.0 0.0 0.00 0.00 0.00 81 1012.4
20260504170713 14 315 0.0 0.0 0.00 0.00 0.00 81 1012.5
20260504150711 14 180 0.0 0.0 0.00 0.00 0.00 83 1011.8
20260504120214 12 292 0.0 0.0 0.00 0.00 0.00 83 1011.0
20260504110411 11 157 0.0 0.0 0.00 0.00 0.00 85 1011.0
20260504080910 13 157 0.0 0.0 0.00 0.00 0.00 77 1010.4
20260504070211 13 157 0.0 0.0 0.00 0.00 0.00 81 1010.7
20260504050319 15 29 0.0 0.0 0.00 0.00 0.00 71 1011.1
20260504045218 14 22 0.0 0.0 0.00 0.00 0.00 71 1011.1
20260504043219 15 292 0.0 0.0 0.00 0.00 0.00 71 1011.1
20260504042220 15 292 0.0 0.0 0.00 0.00 0.00 65 1011.0
20260504042118 15 292 0.0 0.0 0.00 0.00 0.00 65 1011.0